Flag for U.S.A. Weather past 2 weeks in Redmond, Washington, U.S.A.

Now
48 °F

Clear.


Feels Like: 48 °F
Forecast: 45 / 66 °F
Wind: No wind

Location: Seattle Boeing Field

Current Time: Apr 18, 2015 at 5:16:02 AM

Latest Report: Apr 18, 2015 at 4:53 AM


Visibility: 10 mi

Pressure: 30.34 "Hg

Humidity: 74%

Dew point: 40 °F

Location of RedmondLocation

Historic Weather in Redmond — Graph

°F

Redmond temperature yesterday

Maximum temperature yesterday: 67 °F (at 1:53 PM)
Minimum temperature yesterday: 46 °F (at 5:53 AM)
Average temperature yesterday: 58 °F

Past Weeks' High & Low Weather Summary

 TemperatureHumidityPressure
High67 °F (Apr 17, 1:53 PM)100% (Apr 13, 6:53 PM)30.56 "Hg (Apr 13, 6:53 PM)
Low39 °F (Apr 5, 6:53 AM)27% (Apr 5, 3:53 PM)29.64 "Hg (Apr 5, 7:53 PM)
Average51 °F62%30.08 "Hg
* Reported Apr 3 3:53 AM — Apr 18 3:53 AM, Redmond, Weather by CustomWeather, © 2015

Note: Actual official high and low records may vary slightly from our data, if they occured in-between our weather recording intervals... More about our weather records

Advertising

Redmond weather history for previous 24 hours

 ConditionsComfort  
Time TempWeatherWind HumidityBarometerVisibility
3:53 AM
Sat, Apr 18
49 °FClear.No wind77%30.34 "Hg10 mi
2:53 AM52 °FClear.No wind72%30.34 "Hg10 mi
1:53 AM52 °FLight rain. Clear.No wind75%30.33 "Hg10 mi
12:53 AM54 °FClear.No wind69%30.32 "Hg10 mi
11:53 PM
Fri, Apr 17
55 °FPassing clouds.No wind67%30.31 "Hg10 mi
10:53 PM58 °FPassing clouds.3 mph60%30.30 "Hg10 mi
9:53 PM59 °FPassing clouds.3 mph58%30.28 "Hg10 mi
8:53 PM60 °FOvercast.6 mph56%30.27 "Hg10 mi
7:53 PM61 °FScattered clouds.7 mph52%30.25 "Hg10 mi
6:53 PM64 °FSunny.6 mph45%30.24 "Hg10 mi
5:53 PM66 °FSunny.8 mph42%30.24 "Hg10 mi
4:53 PM66 °FSunny.12 mph39%30.24 "Hg10 mi
3:53 PM67 °FSunny.8 mph32%30.23 "Hg10 mi
2:53 PM67 °FSunny.9 mph29%30.24 "Hg10 mi
1:53 PM67 °FSunny.7 mph37%30.25 "Hg10 mi
12:53 PM65 °FLight rain. Passing clouds.7 mph45%30.26 "Hg10 mi
11:53 AM61 °FPassing clouds.8 mph58%30.27 "Hg10 mi
10:53 AM60 °FPartly sunny.No wind58%30.25 "Hg10 mi
9:53 AM58 °FLight rain. Partly sunny.3 mph62%30.25 "Hg10 mi
8:53 AM54 °FPartly sunny.3 mph69%30.26 "Hg10 mi
7:53 AM53 °FScattered clouds.3 mph72%30.27 "Hg10 mi
6:53 AM49 °FPassing clouds.No wind77%30.24 "Hg10 mi
5:53 AM46 °FPassing clouds.No wind77%30.22 "Hg10 mi
Weather by CustomWeather, © 2015

See weather overviewHow to use our weather pages